| time (UTC) | temp F | wind direction | speed knots | gust knots | rain 1hr in | rain 24hr in | rain mn in | humidity % | barometer mb |
| 20260507104533 | 53 | 34 | 0.0 | 0.0 | 0.00 | 0.00 | 0.00 | 94 | 1015.4 |
| 20260507103032 | 53 | 37 | 0.0 | 0.0 | 0.00 | 0.00 | 0.00 | 94 | 1015.4 |
| 20260507101530 | 53 | 34 | 0.0 | 0.0 | 0.00 | 0.00 | 0.00 | 93 | 1015.5 |
| 20260507100041 | 53 | 32 | 0.0 | 0.0 | 0.00 | 0.00 | 0.00 | 94 | 1015.5 |
| 20260507094524 | 54 | 33 | 0.0 | 0.0 | 0.00 | 0.00 | 0.00 | 93 | 1015.7 |
| 20260507093027 | 54 | 34 | 0.0 | 0.0 | 0.00 | 0.00 | 0.00 | 93 | 1015.8 |
| 20260507091522 | 54 | 30 | 0.0 | 2.6 | 0.00 | 0.00 | 0.00 | 93 | 1015.8 |
| 20260507090019 | 55 | 32 | 0.0 | 0.9 | 0.00 | 0.00 | 0.00 | 93 | 1015.9 |
| 20260507084538 | 55 | 34 | 0.0 | 0.9 | 0.00 | 0.00 | 0.00 | 93 | 1016.1 |
| 20260507083022 | 55 | 37 | 0.0 | 1.7 | 0.00 | 0.00 | 0.00 | 93 | 1016.2 |
| 20260507081514 | 55 | 340 | 0.0 | 2.6 | 0.00 | 0.00 | 0.00 | 93 | 1016.3 |
| 20260507080015 | 56 | 33 | 0.0 | 0.0 | 0.00 | 0.00 | 0.00 | 93 | 1016.4 |
| 20260507074513 | 55 | 20 | 0.0 | 0.9 | 0.00 | 0.00 | 0.00 | 93 | 1016.3 |
| 20260507073009 | 56 | 4 | 0.0 | 1.7 | 0.00 | 0.00 | 0.00 | 92 | 1016.5 |
| 20260507071515 | 56 | 30 | 0.0 | 1.7 | 0.00 | 0.00 | 0.00 | 92 | 1016.4 |
| 20260507070015 | 56 | 344 | 0.0 | 1.7 | 0.00 | 0.00 | 0.00 | 92 | 1016.6 |
| 20260507064507 | 56 | 29 | 0.0 | 0.0 | 0.00 | 0.00 | 0.00 | 92 | 1016.6 |
| 20260507063004 | 56 | 16 | 0.0 | 0.0 | 0.00 | 0.00 | 0.00 | 92 | 1016.3 |
| 20260507061504 | 57 | 337 | 0.0 | 0.9 | 0.00 | 0.00 | 0.00 | 91 | 1016.5 |
| 20260507060003 | 57 | 49 | 0.0 | 0.9 | 0.00 | 0.00 | 0.00 | 91 | 1016.6 |
| 20260507054503 | 57 | 323 | 0.0 | 0.9 | 0.00 | 0.00 | 0.00 | 90 | 1016.6 |
| 20260507053003 | 57 | 344 | 0.0 | 0.9 | 0.00 | 0.00 | 0.00 | 90 | 1016.6 |
| 20260507051502 | 58 | 44 | 0.0 | 0.9 | 0.00 | 0.00 | 0.00 | 89 | 1016.6 |
| 20260507050006 | 58 | 253 | 0.0 | 0.0 | 0.00 | 0.00 | 0.00 | 88 | 1016.4 |
| 20260507044501 | 59 | 253 | 0.0 | 0.0 | 0.00 | 0.00 | 0.00 | 88 | 1016.4 |
| 20260507043100 | 60 | 253 | 0.0 | 0.0 | 0.00 | 0.00 | 0.00 | 87 | 1016.3 |
| 20260507041601 | 60 | 253 | 0.0 | 0.9 | 0.00 | 0.00 | 0.00 | 87 | 1016.4 |
| 20260507040109 | 61 | 253 | 0.0 | 0.9 | 0.00 | 0.00 | 0.00 | 86 | 1016.2 |
| 20260507034605 | 61 | 253 | 0.0 | 0.9 | 0.00 | 0.00 | 0.00 | 85 | 1016.1 |
| 20260507033103 | 62 | 246 | 0.0 | 0.9 | 0.00 | 0.00 | 0.00 | 84 | 1015.9 |
| 20260507031558 | 62 | 269 | 0.0 | 0.9 | 0.00 | 0.00 | 0.00 | 83 | 1015.9 |
| 20260507030058 | 63 | 256 | 0.0 | 0.0 | 0.00 | 0.00 | 0.00 | 82 | 1015.7 |
| 20260507024557 | 63 | 256 | 0.0 | 1.7 | 0.00 | 0.00 | 0.00 | 82 | 1015.5 |
| 20260507023056 | 64 | 253 | 0.0 | 1.7 | 0.00 | 0.00 | 0.00 | 80 | 1015.4 |
| 20260507021605 | 65 | 253 | 0.9 | 4.3 | 0.00 | 0.00 | 0.00 | 77 | 1015.3 |
| 20260507020057 | 67 | 267 | 0.9 | 2.6 | 0.00 | 0.00 | 0.00 | 77 | 1015.3 |
| 20260507014558 | 67 | 267 | 0.0 | 2.6 | 0.00 | 0.00 | 0.00 | 75 | 1015.1 |
| 20260507013054 | 68 | 281 | 0.9 | 6.1 | 0.00 | 0.00 | 0.00 | 72 | 1015.0 |
| 20260507011558 | 68 | 270 | 1.7 | 6.1 | 0.00 | 0.00 | 0.00 | 68 | 1015.0 |
| 20260507010055 | 69 | 255 | 2.6 | 5.2 | 0.00 | 0.00 | 0.00 | 63 | 1014.8 |
| 20260507004553 | 69 | 277 | 3.5 | 9.6 | 0.00 | 0.00 | 0.00 | 61 | 1014.9 |
| 20260507003050 | 70 | 277 | 2.6 | 8.7 | 0.00 | 0.00 | 0.00 | 61 | 1014.8 |
| 20260507001549 | 70 | 277 | 3.5 | 7.0 | 0.00 | 0.00 | 0.00 | 61 | 1014.7 |
| 20260507000049 | 72 | 269 | 2.6 | 6.1 | 0.00 | 0.00 | 0.00 | 61 | 1014.6 |
| 20260506234604 | 71 | 283 | 1.7 | 5.2 | 0.00 | 0.00 | 0.00 | 64 | 1014.5 |
| 20260506233047 | 71 | 278 | 5.2 | 8.7 | 0.00 | 0.00 | 0.00 | 63 | 1014.5 |
| 20260506231546 | 70 | 236 | 3.5 | 7.8 | 0.00 | 0.00 | 0.00 | 67 | 1014.6 |
| 20260506230043 | 70 | 264 | 3.5 | 10.4 | 0.00 | 0.00 | 0.00 | 68 | 1014.7 |
| 20260506224546 | 70 | 285 | 4.3 | 11.3 | 0.00 | 0.00 | 0.00 | 67 | 1014.8 |
| 20260506223047 | 70 | 309 | 4.3 | 10.4 | 0.00 | 0.00 | 0.00 | 66 | 1014.9 |
| 20260506221539 | 69 | 271 | 3.5 | 9.6 | 0.00 | 0.00 | 0.00 | 67 | 1015.0 |
| 20260506220038 | 69 | 263 | 4.3 | 9.6 | 0.00 | 0.00 | 0.00 | 68 | 1015.2 |
| 20260506214539 | 70 | 269 | 7.0 | 11.3 | 0.00 | 0.00 | 0.00 | 66 | 1015.3 |
| 20260506213034 | 69 | 271 | 6.1 | 11.3 | 0.00 | 0.00 | 0.00 | 67 | 1015.6 |
| 20260506211535 | 70 | 284 | 6.1 | 10.4 | 0.00 | 0.00 | 0.00 | 67 | 1015.7 |
| 20260506210036 | 71 | 302 | 1.7 | 7.0 | 0.00 | 0.00 | 0.00 | 65 | 1015.8 |
| 20260506204546 | 72 | 278 | 1.7 | 5.2 | 0.00 | 0.00 | 0.00 | 65 | 1015.8 |
| 20260506203031 | 71 | 233 | 3.5 | 7.8 | 0.00 | 0.00 | 0.00 | 64 | 1016.0 |
| 20260506201533 | 69 | 277 | 3.5 | 9.6 | 0.00 | 0.00 | 0.00 | 68 | 1016.2 |
| 20260506200026 | 70 | 233 | 2.6 | 7.8 | 0.00 | 0.00 | 0.00 | 67 | 1016.3 |
| 20260506194525 | 70 | 295 | 3.5 | 7.8 | 0.00 | 0.00 | 0.00 | 66 | 1016.4 |
| 20260506193023 | 70 | 241 | 2.6 | 8.7 | 0.00 | 0.00 | 0.00 | 66 | 1016.5 |
| 20260506191526 | 71 | 267 | 1.7 | 6.1 | 0.00 | 0.00 | 0.00 | 65 | 1016.7 |
| 20260506190022 | 71 | 285 | 1.7 | 7.8 | 0.00 | 0.00 | 0.00 | 65 | 1016.8 |
| 20260506184521 | 72 | 257 | 1.7 | 3.5 | 0.00 | 0.00 | 0.00 | 63 | 1016.9 |
| 20260506183021 | 72 | 149 | 0.9 | 3.5 | 0.00 | 0.00 | 0.00 | 63 | 1017.0 |
| 20260506181525 | 71 | 281 | 0.0 | 3.5 | 0.00 | 0.00 | 0.00 | 65 | 1017.1 |
| 20260506180017 | 71 | 264 | 2.6 | 8.7 | 0.00 | 0.00 | 0.00 | 63 | 1017.3 |
| 20260506174515 | 70 | 194 | 4.3 | 6.1 | 0.00 | 0.00 | 0.00 | 63 | 1017.4 |
| 20260506173015 | 70 | 267 | 0.9 | 5.2 | 0.00 | 0.00 | 0.00 | 60 | 1017.4 |
| 20260506171521 | 70 | 120 | 0.0 | 0.9 | 0.00 | 0.00 | 0.00 | 64 | 1017.6 |
| 20260506170008 | 68 | 211 | 0.0 | 4.3 | 0.00 | 0.00 | 0.00 | 67 | 1017.6 |
| 20260506164505 | 67 | 297 | 0.0 | 0.0 | 0.00 | 0.00 | 0.00 | 69 | 1017.6 |
| 20260506163003 | 67 | 183 | 0.0 | 0.0 | 0.00 | 0.00 | 0.00 | 68 | 1017.7 |
| 20260506161503 | 66 | 106 | 0.0 | 0.0 | 0.00 | 0.00 | 0.00 | 72 | 1017.8 |
| 20260506160100 | 67 | 176 | 0.0 | 0.0 | 0.00 | 0.00 | 0.00 | 71 | 1017.7 |
| 20260506154557 | 65 | 217 | 0.0 | 0.0 | 0.00 | 0.00 | 0.00 | 73 | 1017.8 |
| 20260506153055 | 65 | 98 | 0.0 | 0.0 | 0.00 | 0.00 | 0.00 | 73 | 1017.8 |
| 20260506151605 | 65 | 60 | 0.0 | 0.0 | 0.00 | 0.00 | 0.00 | 79 | 1017.8 |
| 20260506150048 | 63 | 60 | 0.0 | 0.0 | 0.00 | 0.00 | 0.00 | 85 | 1017.9 |
| 20260506144544 | 61 | 60 | 0.0 | 0.0 | 0.00 | 0.00 | 0.00 | 90 | 1017.9 |
| 20260506143048 | 59 | 60 | 0.0 | 0.0 | 0.00 | 0.00 | 0.00 | 90 | 1017.8 |
| 20260506141540 | 58 | 60 | 0.0 | 0.0 | 0.00 | 0.00 | 0.00 | 93 | 1017.8 |
| 20260506140038 | 54 | 60 | 0.0 | 0.0 | 0.00 | 0.00 | 0.00 | 94 | 1017.6 |
| 20260506134532 | 50 | 60 | 0.0 | 0.0 | 0.00 | 0.00 | 0.00 | 94 | 1017.5 |
| 20260506133036 | 49 | 60 | 0.0 | 0.0 | 0.00 | 0.00 | 0.00 | 94 | 1017.4 |
| 20260506131531 | 48 | 60 | 0.0 | 0.0 | 0.00 | 0.00 | 0.00 | 95 | 1017.3 |
| 20260506130030 | 48 | 60 | 0.0 | 0.0 | 0.00 | 0.00 | 0.00 | 95 | 1017.2 |
| 20260506124528 | 48 | 19 | 0.0 | 0.0 | 0.00 | 0.00 | 0.00 | 95 | 1017.0 |
| 20260506123027 | 48 | 6 | 0.0 | 0.0 | 0.00 | 0.00 | 0.00 | 95 | 1016.9 |
| 20260506121527 | 48 | 1 | 0.0 | 0.0 | 0.00 | 0.00 | 0.00 | 94 | 1016.9 |
| 20260506120026 | 48 | 51 | 0.0 | 0.0 | 0.00 | 0.01 | 0.00 | 94 | 1016.9 |
| 20260506114535 | 48 | 51 | 0.0 | 0.0 | 0.00 | 0.01 | 0.00 | 94 | 1016.9 |
| 20260506113023 | 48 | 51 | 0.0 | 0.0 | 0.00 | 0.01 | 0.00 | 94 | 1016.8 |
| 20260506111521 | 48 | 51 | 0.0 | 0.0 | 0.00 | 0.01 | 0.00 | 93 | 1016.7 |
| 20260506110021 | 49 | 14 | 0.0 | 0.0 | 0.00 | 0.07 | 0.00 | 94 | 1016.7 |